sat.trackr.live / text

‹ back to catalog

STARLINK-32496

NORAD 62051 · 2024-216V

PAYLOAD ACTIVE UNKNOWN

§ Identity

Operator
Country
US
Launch date
2024-11-21
Launch site
AFETR
Launch vehicle
Mass (kg)
RCS (m²)

Purposes: comms

External: N2YO · Heavens-Above · Gunter

§ Orbital elements

Epoch: 2026-09-21T22:33:34.400736Z

Period
94.27 min
Inclination
42.9978°
Eccentricity
0.0001203
Mean motion
15.27586872 rev/d
Perigee alt
482.2 km
Apogee alt
483.9 km
Semi-major
6,861.2 km
B*
5.6809e-4
RAAN
235.4334°
Arg perigee
260.4060°
Mean anomaly
99.6656°
Rev number
10,380

§ Raw data

STARLINK-324961 62051U 24216V   26264.93998149  .00015406  00000+0  56809-3 0  99972 62051  42.9978 235.4334 0001203 260.4060  99.6656 15.27586872103807

JSON: /api/v1/satellites/62051 · /tle

For live sub-satellite position, see the globe view (requires WebGL).

§ Visibility from observer

Set your observer location to see the next 7 days of passes ≥ 10°. The values pass through the URL so the page stays shareable.

No JS? Fill the form by hand. The geolocation button needs JavaScript.